GW1540 Weather Reports


time (UTC)temp
C
wind
direction
speed
KPH
gust
KPH
rain 1hr
cm
rain 24hr
cm
rain mn
cm
humidity
%
barometer
mb
20260507070202 8 205 0.0 0.0 0.00 1.27 0.00 96 1014.0
20260507063216 7 205 0.0 0.0 0.00 1.57 0.00 96 1013.9
20260507061700 6 205 0.0 0.0 0.00 1.57 0.00 96 1013.9
20260507060155 5 205 0.0 0.0 0.00 1.57 0.00 96 1014.0
20260507053213 2 205 0.0 0.0 0.00 1.83 0.00 96 1014.0
20260507050200 0 205 0.0 0.0 0.00 1.83 0.00 95 1013.6
20260507043222 0 205 0.0 0.0 0.00 1.85 0.00 95 1013.4
20260507041710 0 205 0.0 0.0 0.00 1.85 0.00 94 1013.3
20260507034716 0 205 0.0 0.0 0.00 1.85 0.00 94 1013.1
20260507033148 0 205 0.0 0.0 0.00 1.85 0.00 95 1013.1
20260507030214 0 205 0.0 0.0 0.00 1.85 0.00 94 1013.1
20260507023202 0 205 0.0 0.0 0.00 1.85 0.00 94 1013.0
20260507020204 1 205 0.0 0.0 0.00 1.85 0.00 94 1012.8
20260507014700 1 205 0.0 0.0 0.00 1.85 0.00 94 1012.8
20260507011710 2 205 0.0 0.0 0.00 1.85 0.00 93 1012.8
20260507010150 2 205 0.0 0.0 0.00 1.85 0.00 93 1012.7
20260507003202 4 205 0.0 0.0 0.00 1.85 0.00 94 1012.4
20260507000220 5 205 0.0 0.0 0.00 1.85 0.00 94 1012.6
20260506234715 6 205 0.0 0.0 0.00 1.85 0.00 94 1012.4
20260506231704 6 205 0.0 0.0 0.00 1.85 0.00 95 1012.4
20260506230148 5 205 0.0 0.0 0.00 1.85 0.00 95 1012.5
20260506223158 5 205 0.0 0.0 0.00 1.85 0.00 93 1012.4
20260506220302 7 205 0.0 0.0 0.00 1.85 0.00 93 1012.4
20260506214704 7 205 0.0 0.0 0.00 1.85 1.85 93 1012.4
20260506211714 8 205 0.0 0.0 0.00 1.85 1.85 94 1012.4
20260506210209 8 205 0.0 0.0 0.00 1.85 1.85 95 1012.3
20260506204701 8 205 0.0 0.0 0.00 1.85 1.85 95 1012.4
20260506203148 8 205 0.0 3.2 0.00 1.85 1.85 94 1012.3
20260506200215 8 205 0.0 0.0 0.03 1.85 1.85 93 1011.9
20260506193214 9 205 0.0 3.2 0.05 1.85 1.85 93 1011.5
20260506190205 9 282 1.6 6.4 0.03 1.83 1.83 94 1011.1
20260506184700 9 114 0.0 3.2 0.00 1.83 1.83 93 1011.1
20260506181712 9 114 0.0 3.2 0.00 1.83 1.83 93 1010.9
20260506180149 10 114 0.0 3.2 0.00 1.83 1.83 92 1011.0
20260506173204 10 220 0.0 0.0 0.00 1.83 1.83 92 1010.7
20260506171656 10 220 0.0 3.2 0.00 1.83 1.83 91 1010.6
20260506170147 10 214 0.0 4.8 0.00 1.83 1.83 91 1010.5
20260506163204 10 232 0.0 8.0 0.00 1.85 1.83 91 1010.2
20260506160210 10 267 1.6 4.8 0.00 1.85 1.83 92 1010.5
20260506153210 10 33 0.0 3.2 0.00 1.88 1.83 92 1010.4
20260506151710 10 33 0.0 6.4 0.00 1.88 1.83 90 1010.4
20260506144718 10 27 3.2 8.0 0.23 1.91 1.83 91 1010.6
20260506141722 9 57 0.0 4.8 0.23 1.91 1.83 93 1010.7
20260506134719 10 335 0.0 3.2 0.28 1.70 1.60 93 1010.8
20260506131702 10 315 0.0 3.2 0.36 1.70 1.60 94 1011.1
20260506124713 9 306 1.6 8.0 0.15 1.52 1.32 94 1011.1
20260506121716 9 194 1.6 9.7 0.30 1.45 1.24 94 1011.0
20260506114702 9 232 0.0 11.3 0.48 1.40 1.17 93 1011.1
20260506111712 9 196 0.0 4.8 0.25 1.17 0.94 93 1011.2
20260506110211 9 205 0.0 6.4 0.23 1.12 0.89 92 1011.4
20260506104709 10 212 1.6 4.8 0.03 1.24 0.71 92 1011.4
20260506101652 9 196 1.6 8.0 0.03 1.22 0.69 92 1011.7
20260506094716 9 238 0.0 3.2 0.03 1.55 0.69 92 1011.8
20260506091722 8 237 0.0 3.2 0.00 1.55 0.66 91 1011.8
20260506090219 8 237 1.6 6.4 0.00 1.55 0.66 89 1011.8
20260506084705 8 299 0.0 3.2 0.00 1.55 0.66 91 1011.7
20260506083206 8 261 0.0 6.4 0.03 1.55 0.66 91 1011.5
20260506081659 8 304 0.0 3.2 0.05 1.55 0.66 92 1011.5
20260506073209 8 65 0.0 3.2 0.15 1.55 0.64 95 1011.7